Regional Weather Roundup
Issued by NWS Boston, MA

Home | Current Version | Previous Version | Text Only | Print | Product List | Glossary On
Versions: 1 2 3 4 5 6 7 8 9 10 11 12 13 14 15 16 17 18 19 20 21 22 23 24 25 26 27 28
000
ASUS41 KBOX 191210
RWRBOX

REGIONAL WEATHER ROUNDUP
NATIONAL WEATHER SERVICE TAUNTON MA
800 AM EDT SAT APR 19 2014

NOTE:  "FAIR" INDICATES FEW OR NO CLOUDS BELOW 12,000 FEET WITH NO
SIGNIFICANT WEATHER AND/OR OBSTRUCTIONS TO VISIBILITY.  THE FOLLOWING
OBSERVATION LOCATIONS DO NOT REPORT PRESENT WEATHER...PROVINCETOWN...
SMITHFIELD...BLOCK ISLAND...KEENE...AND OXFORD.

MAZALL-191300-
EASTERN MASSACHUSETTS

CITY           SKY/WX    TMP DP  RH WIND       PRES   REMARKS
BOSTON         MOSUNNY   45  31  58 W10       30.18S
6HR MIN TEMP:  37; 6HR MAX TEMP:  45;

BEVERLY        MOSUNNY   42  32  67 W10       30.17R
LAWRENCE       SUNNY     41  31  67 SW7       30.19R
BEDFORD        MOSUNNY   43  33  68 W7        30.17S
BLUE HILL        N/A     41  32  70 W12       30.16R
NORWOOD        MOSUNNY   43  33  68 W6        30.19R
MARSHFIELD       N/A    N/A N/A N/A MISG        N/A
PLYMOUTH       MOSUNNY   42  35  76 W8        30.18S
TAUNTON        MOSUNNY   45  35  68 W7        30.19S
NEW BEDFORD    MOSUNNY   44  36  73 W13       30.19R
$$

MAZALL-191300-
CAPE COD AND THE ISLANDS

CITY           SKY/WX    TMP DP  RH WIND       PRES   REMARKS
FALMOUTH       MOSUNNY   45  37  76 W12G17    30.19S
HYANNIS        MOSUNNY   45  38  76 W9        30.17S
CHATHAM        MOSUNNY   45  39  79 W8        30.19S
PROVINCETOWN   MOSUNNY   43  37  81 MISG      30.19S
NANTUCKET      MOSUNNY   44  39  82 W14       30.20S
MARTHAS VNYRD  MOSUNNY   45  37  73 W14G21    30.20S
$$

MAZALL-191300-
CENTRAL AND WESTERN MASSACHUSETTS

CITY           SKY/WX    TMP DP  RH WIND       PRES   REMARKS
WORCESTER      SUNNY     41  30  65 W16       30.17S
6HR MIN TEMP:  33; 6HR MAX TEMP:  41;

FITCHBURG      SUNNY     45  33  63 N7        30.19R
ORANGE         SUNNY     35  32  88 CALM      30.21R
SPRINGFIELD    SUNNY     41  40  95 S5        30.22R
WESTFIELD      SUNNY     39  33  79 CALM      30.22R
NORTH ADAMS    CLOUDY    44  34  67 W5        30.23R
PITTSFIELD     MOSUNNY   40  33  76 NW10G21   30.21R
$$

RIZALL-191300-
RHODE ISLAND

CITY           SKY/WX    TMP DP  RH WIND       PRES   REMARKS
PROVIDENCE     MOSUNNY   44  34  67 W7        30.21S
6HR MIN TEMP:  36; 6HR MAX TEMP:  44;

NEWPORT        MOSUNNY   43  34  70 W7        30.21R
BLOCK ISLAND   SUNNY     43  36  75 W16       30.23R
SMITHFIELD     MOSUNNY   45  30  57 W8        30.20S
WESTERLY       MOSUNNY   42  37  82 VRB3      30.24R
$$

CTZALL-191300-
CONNECTICUT

CITY           SKY/WX    TMP DP  RH WIND       PRES   REMARKS
BRADLEY INTL   PTSUNNY   41  34  76 S3        30.23R
6HR MIN TEMP:  34; 6HR MAX TEMP:  41;

HARTFORD       MOSUNNY   41  35  79 S5        30.24R
BRIDGEPORT     SUNNY     44  37  76 W6        30.26R
DANBURY        MOSUNNY   42  35  76 E3        30.25R
GROTON         MOSUNNY   43  38  82 W6        30.24R
NEW HAVEN      MOSUNNY   42  37  82 CALM      30.25R
CHESTER        FAIR      41  37  87 CALM      30.24R
MERIDEN        MOSUNNY   40  36  86 S6        30.25R
WILLIMANTIC    MOSUNNY   39  34  82 CALM      30.23S
OXFORD         MOSUNNY   43  32  65 NW3       30.25R
$$

MEZ002-015-021-024-NHZ003-005-008-011-012-014-VTZ005-008-191300-
NORTHERN NEW ENGLAND

CITY           SKY/WX    TMP DP  RH WIND       PRES   REMARKS
PORTLAND ME    PTSUNNY   37  31  78 NW6       30.16R
6HR MIN TEMP:  31; 6HR MAX TEMP:  37;

BANGOR ME      CLOUDY    34  30  85 SW5       30.13R WCI  30
CONCORD NH     SUNNY     36  31  82 VRB3      30.18R
MANCHESTER NH  MOSUNNY   36  31  82 CALM      30.17R
NASHUA NH      SUNNY     36  32  85 CALM      30.19R
PORTSMOUTH NH  MOSUNNY   38  35  88 W6        30.17R
JAFFREY NH     SUNNY     36  31  82 CALM      30.19R
KEENE NH       SUNNY     34  27  75 CALM      30.21R
BURLINGTON VT  LGT RAIN  43  39  86 NW12      30.23R FOG
MT. WASHINGTON SNOW      19  19 100 NW48G58     N/A  VSB 0   WCI  -3
$$

NYZ052-076-191300-
EASTERN NEW YORK

CITY           SKY/WX    TMP DP  RH WIND       PRES   REMARKS
ALBANY         MOSUNNY   45  32  60 W17       30.26R
6HR MIN TEMP:  34; 6HR MAX TEMP:  45; 6HR PCP: TRACE;

NEW YORK CITY  PTSUNNY   46  35  65 NW7       30.26R
6HR MIN TEMP:  42; 6HR MAX TEMP:  46;

$$

ANZALL-191300-
MARINE OBSERVATIONS

STATION/POSITION TIME  TEMP    WIND        PRES    VSBY  WAVE
                       AIR SEA DIR/SP/G                  HT/PER
                 (UTC) (F)     (DEG/KT/KT) (MB)    (MI)  (FT/S)
BOSTON BUOY      1150   41 40  270/ 12/ 16 1022.0R         5/10
BUZZARDS BAY     1100          260/ 18/ 19 1023.3S
NANTUCKET SOUND  1150   42 43  260/ 12/ 16 1022.4R         1/ 3
MASS BAY-STELLWA 1104   40 40  230/ 10/ 12 1020.5R  1 7/8  5/11
ISLE OF SHOALS   1200   36     270/ 10/ 11 1020.9R
S OF BLOCK IS    1125      41                N/A           5/10
$$

......................KEY.........................
  SKY/WX - SKY CONDITION/PRESENT WEATHER
  TMP    - TEMPERATURE IN FAHRENHEIT
  DWPT   - DEWPOINT IN FAHRENHEIT
  RH     - RELATIVE HUMIDITY IN PERCENT
  WIND   - DIRECTION AND SPEED IN MPH
  PRES   - MEAN SEA LEVEL PRESSURE IN INCHES OF HG
  WCI    - WIND CHILL INDEX
  VSB    - VISIBILITY IN MILES
  HX     - HEAT INDEX
  TC     - TEMPERATURE IN CELSIUS
  VRB    - VARIABLE WIND DIRECTION
  N/A    - NOT AVAILABLE



USA.gov is the U.S. government's official web portal to all federal, state and local government web resources and services.